Gypsum, CO

9:08 AM MDT on August 24, 2016 (GMT -0600)
Eagle County Regional

Weather History for KEGE - May, 2013

Change the Weather History Date:

Wednesday, May 29, 2013

  Actual Average Record
Temperature  
Mean Temperature 52 °F -  
Max Temperature 60 °F 73 °F 87 °F (2000)
Min Temperature 44 °F 37 °F 22 °F (1955)
Degree Days  
Heating Degree Days 13    
Growing Degree Days 2 (Base 50)    
Moisture  
Dew Point 37 °F    
Average Humidity 63    
Maximum Humidity 93    
Minimum Humidity 29    
Precipitation  
Precipitation 0.06 in - - ()
Sea Level Pressure  
Sea Level Pressure 29.81 in    
Wind  
Wind Speed 8 mph (WSW)    
Max Wind Speed 24 mph    
Max Gust Speed 31 mph    
Visibility 10 miles    
Events Rain    
Averages and records for this station are not official NWS values.
T = Trace of Precipitation, MM = Missing Value Source: NWS Daily Summary

Daily Weather History Graph

Daily Weather History Graph

Search for Another Location

Airport or City:

Trip Planner

Search our weather history database for the weather conditions in past years. The results will help you decide how hot, cold, wet, or windy it might be!

Date:

Astronomy

May. 29, 2013 Rise Set
Actual Time 5:43 AM MDT 8:27 PM MDT
Civil Twilight 5:11 AM MDT 8:59 PM MDT
Nautical Twilight 4:31 AM MDT 9:38 PM MDT
Astronomical Twilight 3:46 AM MDT 10:24 PM MDT
Moon No Moon Rise 10:45 AM MDT (5/29)
Length of Visible Light 15h 47m
Length of Day
14h 44m
Waning Gibbous, 72% of the Moon is Illuminated
May 29
Waning Gibbous
May 31
Last Quarter
Jun 8
New
Jun 16
First Quarter
Jun 23
Full

Hourly Weather History & Observations

Time (MDT) Temp. Windchill Dew Point Humidity Pressure Visibility Wind Dir Wind Speed Gust Speed Precip Events Conditions
12:15 AM 50.0 °F - 30.2 °F 47% 29.76 in 10.0 mi Calm Calm - N/A   Mostly Cloudy
12:35 AM 48.2 °F - 30.2 °F 50% 29.76 in 10.0 mi SSE 3.5 mph - N/A   Overcast
12:55 AM 51.8 °F - 32.0 °F 47% 29.77 in 10.0 mi SW 8.1 mph - N/A   Overcast
1:15 AM 53.6 °F - 35.6 °F 51% 29.77 in 10.0 mi SSW 19.6 mph 24.2 mph N/A   Overcast
1:35 AM 53.6 °F - 37.4 °F 54% 29.78 in 10.0 mi WSW 12.7 mph 18.4 mph N/A   Overcast
1:55 AM 51.8 °F - 39.2 °F 62% 29.79 in 10.0 mi WSW 9.2 mph - N/A   Overcast
2:15 AM 50.0 °F - 37.4 °F 62% 29.79 in 10.0 mi SW 12.7 mph 23.0 mph N/A   Overcast
2:35 AM 50.0 °F - 37.4 °F 62% 29.79 in 10.0 mi West 9.2 mph 16.1 mph N/A   Overcast
2:55 AM 48.2 °F - 37.4 °F 66% 29.80 in 10.0 mi WSW 9.2 mph - N/A   Overcast
3:15 AM 48.2 °F - 39.2 °F 71% 29.82 in 10.0 mi WSW 21.9 mph 27.6 mph N/A   Overcast
3:35 AM 44.6 °F - 39.2 °F 81% 29.81 in 10.0 mi Calm Calm - 0.04 in   Overcast
3:55 AM 44.6 °F - 41.0 °F 87% 29.81 in 10.0 mi Calm Calm - 0.05 in   Overcast
4:15 AM 44.6 °F - 41.0 °F 87% 29.81 in 10.0 mi Calm Calm - N/A   Overcast
4:35 AM 44.6 °F 42.2 °F 41.0 °F 87% 29.81 in 10.0 mi SE 4.6 mph - N/A   Overcast
4:55 AM 44.6 °F 43.1 °F 42.8 °F 93% 29.81 in 10.0 mi East 3.5 mph - N/A   Overcast
5:15 AM 44.6 °F - 42.8 °F 93% 29.81 in 10.0 mi Calm Calm - N/A   Overcast
5:35 AM 44.6 °F 43.1 °F 42.8 °F 93% 29.80 in 10.0 mi NE 3.5 mph - N/A   Overcast
5:55 AM 44.6 °F 43.1 °F 42.8 °F 93% 29.81 in 10.0 mi ENE 3.5 mph - N/A   Overcast
6:15 AM 44.6 °F 40.2 °F 42.8 °F 93% 29.82 in 5.0 mi WSW 8.1 mph - 0.01 in   Overcast
6:50 AM 44.6 °F - 41.0 °F 87% 29.80 in 10.0 mi Calm Calm - N/A   Mostly Cloudy
7:50 AM 46.4 °F - 42.8 °F 87% 29.80 in 10.0 mi Calm Calm - N/A   Mostly Cloudy
8:50 AM 46.4 °F 39.8 °F 39.2 °F 76% 29.80 in 10.0 mi SW 16.1 mph - N/A   Mostly Cloudy
9:50 AM 50.0 °F - 39.2 °F 66% 29.80 in 10.0 mi SSW 20.7 mph 25.3 mph N/A   Mostly Cloudy
10:50 AM 51.8 °F - 37.4 °F 58% 29.78 in 10.0 mi SSW 19.6 mph 26.5 mph N/A   Scattered Clouds
11:50 AM 55.4 °F - 35.6 °F 47% 29.78 in 10.0 mi SSW 18.4 mph 23.0 mph N/A   Scattered Clouds
12:59 PM 53.6 °F - 37.4 °F 54% 29.79 in 10.0 mi SSW 20.7 mph 27.6 mph N/A Rain Light Rain
1:50 PM 55.4 °F - 35.6 °F 47% 29.77 in 10.0 mi SSW 16.1 mph 25.3 mph N/A   Mostly Cloudy
2:50 PM 57.2 °F - 33.8 °F 41% 29.77 in 10.0 mi WSW 21.9 mph 29.9 mph N/A   Scattered Clouds
3:50 PM 60.8 °F - 30.2 °F 31% 29.76 in 10.0 mi SW 21.9 mph 31.1 mph N/A   Scattered Clouds
4:50 PM 59.0 °F - 33.8 °F 39% 29.74 in 10.0 mi SSW 13.8 mph 20.7 mph N/A   Mostly Cloudy
5:50 PM 60.8 °F - 28.4 °F 29% 29.75 in 10.0 mi West 12.7 mph 24.2 mph N/A   Mostly Cloudy
6:50 PM 51.8 °F - 33.8 °F 50% 29.78 in 10.0 mi NW 24.2 mph 31.1 mph N/A   Mostly Cloudy
7:15 PM 50.0 °F - 33.8 °F 54% 29.80 in 10.0 mi NNW 12.7 mph 27.6 mph N/A   Overcast
7:35 PM 53.6 °F - 32.0 °F 44% 29.80 in 10.0 mi NW 10.4 mph 19.6 mph N/A   Overcast
7:55 PM 53.6 °F - 33.8 °F 47% 29.82 in 10.0 mi WNW 10.4 mph 16.1 mph N/A   Overcast
8:15 PM 51.8 °F - 33.8 °F 50% 29.82 in 10.0 mi NW 9.2 mph - N/A   Overcast
8:35 PM 51.8 °F - 33.8 °F 50% 29.82 in 10.0 mi West 3.5 mph - N/A   Overcast
8:55 PM 50.0 °F - 33.8 °F 54% 29.83 in 10.0 mi North 4.6 mph - N/A   Overcast
9:15 PM 50.0 °F - 33.8 °F 54% 29.83 in 10.0 mi Calm Calm - N/A   Mostly Cloudy
9:35 PM 48.2 °F - 35.6 °F 62% 29.84 in 10.0 mi NE 4.6 mph - N/A   Mostly Cloudy
9:55 PM 48.2 °F - 35.6 °F 62% 29.85 in 10.0 mi East 5.8 mph - N/A   Mostly Cloudy
10:15 PM 46.4 °F 44.3 °F 35.6 °F 66% 29.87 in 10.0 mi North 4.6 mph - N/A   Mostly Cloudy
10:35 PM 48.2 °F - 35.6 °F 62% 29.88 in 10.0 mi WNW 3.5 mph - N/A   Overcast
10:55 PM 48.2 °F - 35.6 °F 62% 29.88 in 10.0 mi SSW 10.4 mph - N/A   Mostly Cloudy
11:15 PM 48.2 °F - 35.6 °F 62% 29.87 in 10.0 mi SW 8.1 mph - N/A   Mostly Cloudy
11:35 PM 48.2 °F - 35.6 °F 62% 29.86 in 10.0 mi SSW 6.9 mph - N/A   Mostly Cloudy
11:55 PM 48.2 °F - 35.6 °F 62% 29.86 in 10.0 mi Calm Calm - N/A   Overcast